Regional Weather Roundup
Issued by NWS

Home | Current Version | Previous Version | Text Only | Print | Product List | Glossary Off
Versions: 1 2 3 4 5 6 7 8 9 10 11 12 13 14 15 16 17 18 19 20 21 22 23 24 25 26 27 28 29 30 31 32 33 34 35 36 37 38 39 40 41 42 43 44 45 46 47 48 49 50

000
ASUS43 KDMX 301907
RWRIA

WEATHER ROUNDUP FOR IOWA
NATIONAL WEATHER SERVICE DES MOINES IA
200 PM CDT SUN AUG 30 2015

NOTE: "FAIR" INDICATES FEW OR NO CLOUDS BELOW 12,000 FEET WITH NO
SIGNIFICANT WEATHER AND/OR OBSTRUCTIONS TO VISIBILITY.

* - THESE STATIONS ARE NOT NWS STATIONS...THUS NOT UNDER NWS
QUALITY CONTROL.  THEY ALSO DO NOT REPORT WEATHER SUCH
AS PRECIPITATION OR FOG.

IAZ001>003-012>014-020>022-031>034-043>046-302000-
   NORTHWEST IOWA

CITY           SKY/WX    TMP DP  RH WIND       PRES   REMARKS
CARROLL *      CLOUDY    70  66  88 SW12G18   30.05S
CHEROKEE *     SUNNY     72  66  83 S10       30.02F
DENISON *      CLOUDY    70  64  83 S9G16     30.03F
LE MARS *      PTSUNNY   68  64  88 S12       30.02S
ORANGE CITY *  PTSUNNY   70  64  83 S14G20    30.01F
SHELDON *      SUNNY     73  66  78 S10G17    29.99F
SPENCER        SUNNY     75  65  70 S12       30.01F
STORM LAKE *   PTSUNNY   72  66  83 S14       30.04S
$$

IAZ055>058-069>071-079>083-090>094-302000-
   SOUTHWEST IOWA

CITY           SKY/WX    TMP DP  RH WIND       PRES   REMARKS
ATLANTIC *     CLOUDY    73  68  83 SW10      30.05F
AUDUBON *      CLOUDY    72  66  83 S9        30.06F
CLARINDA *     CLOUDY    75  70  83 VRB6      30.07F
COUNCIL BLFS * CLOUDY    72  66  83 S13       30.05F
CRESTON *      CLOUDY    75  68  78 VRB5      30.08F
HARLAN  *      CLOUDY    72 -36   1 S12G17    30.08F
LAMONI         PTSUNNY   77  68  73 CALM      30.06F
RED OAK *      CLOUDY    75  70  83 S8        30.06S
SHENANDOAH *   CLOUDY    75  68  78 SW7       30.06F
$$

IAZ047>049-059>061-072>074-084-302000-
   CENTRAL IOWA

CITY           SKY/WX    TMP DP  RH WIND       PRES   REMARKS
AMES           CLOUDY    73  65  75 SW9       30.06F
ANKENY *       CLOUDY    73  66  78 VRB5      30.06S
CHARITON *     PTSUNNY   77  70  78 VRB3      30.06F
DES MOINES     CLOUDY    75  65  70 S3        30.05F
GRINNELL*      CLOUDY    72  66  83 S5        30.07F
KNOXVILLE *    CLOUDY    73  66  78 CALM      30.05F
MARSHALLTOWN   CLOUDY    71  66  84 SW7       30.06F
PELLA *        PTSUNNY   77  70  78 CALM      30.08F HAZE
PERRY *        CLOUDY    75  68  78 SW6       30.05F
$$

IAZ004>006-015-016-023>025-035-036-302000-
   NORTH CENTRAL IOWA

CITY           SKY/WX    TMP DP  RH WIND       PRES   REMARKS
ALGONA *       MOSUNNY   75  66  73 S15       30.02F
CLARION *      CLOUDY    72  66  83 S12G18    30.05S
ESTHERVILLE    SUNNY     74  65  73 S15       30.01F
FORT DODGE *   CLOUDY    72  64  78 S12       30.05F
MASON CITY     PTSUNNY   72  65  78 S9        30.06F
FOREST CITY *  PTSUNNY   72  63  73 S9        30.04F
IOWA FALLS *   CLOUDY    73  66  78 S10       30.07S
$$

IAZ007>011-017>019-026>030-037>042-050>054-066-302000-
   NORTHEAST IOWA

CITY           SKY/WX    TMP DP  RH WIND       PRES   REMARKS
CEDAR RAPIDS   CLOUDY    73  66  78 SW3       30.07F
CHARLES CITY * CLOUDY    72  66  83 S10       30.07S
CLINTON *      PTSUNNY   73  64  73 W3        30.09F
DECORAH *      CLOUDY    72  64  78 SW8       30.06S
DUBUQUE        CLOUDY    72  63  73 W6        30.08F
MONTICELLO *   CLOUDY    73  64  73 VRB3      30.07F
OELWEIN *      CLOUDY    72  64  78 S8        30.08S
WATERLOO       CLOUDY    72  64  76 S10       30.05F
$$

IAZ064-065-067-068-078-302000-
   EAST CENTRAL IOWA

CITY           SKY/WX    TMP DP  RH WIND       PRES   REMARKS
DAVENPORT      MOSUNNY   76  65  68 CALM      30.07F
IOWA CITY      PTSUNNY   75  64  68 W3        30.07F
MT. PLEASANT * PTSUNNY   82  64  54 NE3       30.06F HX  84
MUSCATINE *    MOSUNNY   79  64  61 VRB6      30.06S HX  81
QUAD CITIES    MOSUNNY   79  64  60 NE3       30.05F HX  81
$$

IAZ062-063-075>077-085>089-095>099-302000-
   SOUTHEAST IOWA

CITY           SKY/WX    TMP DP  RH WIND       PRES   REMARKS
BURLINGTON     MOSUNNY   80  68  66 E5        30.05F HX  83
FAIRFIELD *    MOSUNNY   75  66  73 CALM      30.07S
FORT MADISON * SUNNY     81  70  69 CALM      30.06S HX  84
KEOKUK *       SUNNY     82  66  57 CALM      30.04S HX  85
OSKALOOSA *    PTSUNNY   73  66  78 CALM      30.07F
CENTERVILLE *  MOSUNNY   77  70  78 CALM      30.07F
OTTUMWA        MOSUNNY   73  68  84 CALM      30.05F
WASHINGTON *     N/A    N/A N/A N/A MISG        N/A
$$

ABBREVIATIONS USED IN REMARKS
   TC - TEMPERATURES IN CELSIUS
  WCI - WIND CHILL INDEX
   HX - HEAT INDEX
  VSB - VISIBILITY
$$



USA.gov is the U.S. government's official web portal to all federal, state and local government web resources and services.